Location: Newark
(45.1167°S, 170.6500°W)
Time: 10:05:00
(UTC+00:00)

Envisat - Visible Passes

Search period start: 18 September 2019 00:00
Search period end: 28 September 2019 00:00
Orbit: 764 x 766 km, 98.1° (Epoch: 18 September)

Date Brightness Start Highest point End Pass type
(mag) Time Alt. Az. Time Alt. Az. Time Alt. Az.
18 Sep 3.5 06:52:10 10° S 06:57:16 62° WSW 07:02:18 10° NNW visible
18 Sep 5.2 16:30:30 10° NE 16:34:52 29° ESE 16:39:17 10° S visible
19 Sep 3.0 06:15:23 10° SSE 06:20:31 64° E 06:25:35 10° N visible
19 Sep 5.6 07:55:28 10° SSW 07:59:02 19° WSW 08:02:36 10° WNW visible
19 Sep 6.0 15:55:40 10° E 15:58:32 15° ESE 16:01:26 10° SSE visible
20 Sep 3.8 05:39:04 10° SSE 05:43:34 30° E 05:48:02 10° NNE visible
20 Sep 4.5 07:17:55 10° S 07:22:38 37° WSW 07:27:19 10° NW visible
21 Sep 3.2 06:40:52 10° S 06:46:02 77° WSW 06:51:09 10° NNW visible
21 Sep 6.2 08:22:17 10° SW 08:24:10 12° SW 08:26:04 10° WSW visible
21 Sep 5.6 16:19:40 10° ENE 16:23:44 24° ESE 16:27:48 10° S visible
22 Sep 3.2 06:04:12 10° SSE 06:09:14 51° E 06:14:12 10° N visible
22 Sep 5.4 07:43:54 10° SSW 07:47:54 23° WSW 07:51:54 10° WNW visible
22 Sep 6.2 15:45:22 10° E 15:47:27 12° SE 15:49:32 10° SSE visible
23 Sep 4.1 07:06:32 10° S 07:11:27 46° WSW 07:16:18 10° NW visible
24 Sep 3.0 06:29:36 10° SSE 06:34:47 86° ENE 06:39:55 10° NNW visible
24 Sep 6.0 08:10:19 10° SSW 08:13:05 15° WSW 08:15:51 10° W visible
24 Sep 5.9 16:08:57 10° ENE 16:12:36 20° ESE 16:16:15 10° SSE visible
25 Sep 3.4 05:53:03 10° SSE 05:57:56 40° E 06:02:43 10° NNE visible
25 Sep 5.1 07:32:25 10° S 07:36:46 28° WSW 07:41:05 10° WNW visible
25 Sep 6.6 15:36:12 10° SE 15:36:23 10° SE 15:36:35 10° SE visible
26 Sep 3.7 06:55:11 10° S 07:00:15 57° WSW 07:05:15 10° NNW visible
27 Sep 3.0 06:18:22 10° SSE 06:23:32 69° ENE 06:28:36 10° N visible
27 Sep 5.8 07:58:36 10° SSW 08:01:59 18° WSW 08:05:21 10° W visible
27 Sep 6.0 15:58:21 10° E 16:01:29 17° ESE 16:04:37 10° SSE visible
